Location: Lombard
(41.8800°N, 88.0080°W)
Time: 05:42:15
(UTC-05:00)

Vanguard 2 Rocket - Pass Details

Date: 27 February 2024
Orbit: 555 x 3307 km, 32.9° (Epoch: 12 April)

Event Time Altitude Azimuth Distance (km) Brightness Sun altitude
Rises 18:30:21 0° 274° (W) 5,458 13.1 -10.2°
Reaches altitude 10° 18:33:42 10° 268° (W) 4,787 12.2 -10.9°
Maximum altitude 18:47:04 42° 204° (SSW) 3,760 10.2 -13.3°
Drops below altitude 10° 19:04:53 10° 142° (SE) 6,253 10.8 -16.7°
Sets 19:10:08 0° 136° (SE) 7,216 11.0 -17.6°
